Location: Lower Kingswood
(51.2667°N, 0.2167°W)
Time: 04:23:14
(UTC+00:00)

Cosmos 1536 - Pass Details

Date: 26 September 2023
Orbit: 523 x 546 km, 82.6° (Epoch: 29 November)

Event Time Altitude Azimuth Distance (km) Brightness Sun altitude
Rises 05:02:44 0° 347° (NNW) 2,682 6.3 -8.6°
Reaches altitude 10° 05:04:54 10° 344° (NNW) 1,783 5.4 -8.3°
Maximum altitude 05:08:46 63° 263° (W) 594 2.7 -7.7°
Drops below altitude 10° 05:12:35 10° 183° (S) 1,760 5.3 -7.1°
Sets 05:14:43 0° 180° (S) 2,642 6.2 -6.8°
